• In Netherlands
  • List of Countries
  • For 7 days
  • Water Temperature
  • Satellite Maps
  • Weather Map
  • Weather Widgets
  • user-avatar
    Login

    Hourly Weather Plovdiv

    Today, 24 September, Monday

    Time Temperature Precipitation Wind Pressure Humidity
    00:00 +22°C° 0 mm 1 mps 740 mmHg 61%
    01:00 +22°C° 0 mm 1 mps 739 mmHg 63%
    02:00 +22°C° 0 mm 1 mps 739 mmHg 63%
    03:00 +21°C° 0 mm 1 mps 738 mmHg 64%
    04:00 +21°C° 0 mm 1 mps 738 mmHg 65%
    05:00 +21°C° 0 mm 1 mps 738 mmHg 66%
    06:00 +22°C° 0 mm 1 mps 737 mmHg 62%
    07:00 +23°C° 0 mm 1 mps 737 mmHg 58%
    08:00 +25°C° 0 mm 1 mps 737 mmHg 53%
    09:00 +27°C° 0 mm 1 mps 737 mmHg 47%
    10:00 +29°C° 0 mm 1 mps 737 mmHg 40%
    11:00 +31°C° 0 mm 2 mps 736 mmHg 34%
    12:00 +32°C° 0 mm 2 mps 736 mmHg 32%
    13:00 +34°C° 0 mm 2 mps 736 mmHg 30%
    14:00 +35°C° 0 mm 3 mps 736 mmHg 28%
    15:00 +33°C° 0 mm 3 mps 736 mmHg 33%
    16:00 +32°C° 0 mm 4 mps 736 mmHg 37%
    17:00 +29°C° 0 mm 5 mps 737 mmHg 42%
    18:00 +26°C° 0 mm 4 mps 737 mmHg 49%
    19:00 +23°C° 0 mm 4 mps 738 mmHg 57%
    20:00 +20°C° 0 mm 3 mps 739 mmHg 65%
    21:00 +19°C° 0 mm 4 mps 740 mmHg 65%
    22:00 +18°C° 0 mm 4 mps 741 mmHg 65%
    23:00 +17°C° 0 mm 4 mps 742 mmHg 66%

    Tomorrow, 25 September, Tuesday

    Time Temperature Precipitation Wind Pressure Humidity
    00:00 +15°C° 0 mm 4 mps 742 mmHg 65%
    01:00 +14°C° 0 mm 4 mps 742 mmHg 64%
    02:00 +14°C° 0 mm 4 mps 743 mmHg 64%
    03:00 +13°C° 0 mm 4 mps 743 mmHg 63%
    04:00 +13°C° 0 mm 4 mps 744 mmHg 62%
    05:00 +12°C° 0 mm 3 mps 744 mmHg 61%
    06:00 +13°C° 0 mm 3 mps 745 mmHg 58%
    07:00 +13°C° 0 mm 3 mps 745 mmHg 55%
    08:00 +13°C° 0 mm 3 mps 746 mmHg 51%
    09:00 +14°C° 0 mm 4 mps 746 mmHg 44%
    10:00 +17°C° 0 mm 4 mps 746 mmHg 37%
    11:00 +18°C° 0 mm 4 mps 746 mmHg 30%
    12:00 +19°C° 0 mm 4 mps 746 mmHg 28%
    13:00 +19°C° 0 mm 4 mps 745 mmHg 27%
    14:00 +20°C° 0 mm 4 mps 745 mmHg 25%
    15:00 +19°C° 0 mm 4 mps 745 mmHg 27%
    16:00 +18°C° 0 mm 4 mps 745 mmHg 28%
    17:00 +18°C° 0 mm 4 mps 745 mmHg 30%
    18:00 +16°C° 0 mm 3 mps 746 mmHg 34%
    19:00 +13°C° 0 mm 3 mps 746 mmHg 38%
    20:00 +12°C° 0 mm 2 mps 747 mmHg 42%
    21:00 +10°C° 0 mm 2 mps 747 mmHg 44%
    22:00 +9°C° 0 mm 2 mps 748 mmHg 45%
    23:00 +9°C° 0 mm 2 mps 748 mmHg 47%

    Day after tomorrow, 26 September, Wednesday

    Time Temperature Precipitation Wind Pressure Humidity
    00:00 +8°C° 0 mm 2 mps 749 mmHg 49%
    01:00 +8°C° 0 mm 2 mps 749 mmHg 51%
    02:00 +8°C° 0 mm 2 mps 749 mmHg 53%
    03:00 +7°C° 0 mm 2 mps 749 mmHg 54%
    04:00 +7°C° 0 mm 2 mps 749 mmHg 56%
    05:00 +7°C° 0 mm 2 mps 749 mmHg 58%
    06:00 +8°C° 0 mm 2 mps 750 mmHg 55%
    07:00 +9°C° 0 mm 2 mps 750 mmHg 52%
    08:00 +10°C° 0 mm 2 mps 750 mmHg 49%
    09:00 +12°C° 0 mm 2 mps 750 mmHg 44%
    10:00 +13°C° 0 mm 3 mps 750 mmHg 39%
    11:00 +16°C° 0 mm 3 mps 750 mmHg 34%
    12:00 +16°C° 0 mm 3 mps 750 mmHg 33%
    13:00 +15°C° 0 mm 4 mps 749 mmHg 33%
    14:00 +17°C° 0 mm 4 mps 749 mmHg 32%
    15:00 +15°C° 0 mm 4 mps 749 mmHg 34%
    16:00 +14°C° 0 mm 4 mps 749 mmHg 36%
    17:00 +14°C° 0 mm 4 mps 748 mmHg 38%
    18:00 +12°C° 0 mm 3 mps 749 mmHg 44%
    19:00 +10°C° 0 mm 2 mps 749 mmHg 50%
    20:00 +9°C° 0 mm 2 mps 750 mmHg 56%
    21:00 +8°C° 0 mm 2 mps 750 mmHg 58%
    22:00 +7°C° 0 mm 2 mps 750 mmHg 60%
    23:00 +7°C° 0 mm 2 mps 750 mmHg 62%

    27 September, Thursday

    Time Temperature Precipitation Wind Pressure Humidity
    00:00 +7°C° 0 mm 2 mps 750 mmHg 63%
    01:00 +6°C° 0 mm 2 mps 750 mmHg 63%
    02:00 +6°C° 0 mm 2 mps 750 mmHg 64%
    03:00 +6°C° 0 mm 2 mps 749 mmHg 64%
    04:00 +5°C° 0 mm 2 mps 749 mmHg 64%
    05:00 +5°C° 0 mm 2 mps 749 mmHg 64%
    06:00 +7°C° 0 mm 2 mps 749 mmHg 59%
    07:00 +8°C° 0 mm 2 mps 749 mmHg 53%
    08:00 +9°C° 0 mm 2 mps 749 mmHg 48%
    09:00 +11°C° 0 mm 3 mps 748 mmHg 42%
    10:00 +13°C° 0 mm 3 mps 748 mmHg 37%
    11:00 +16°C° 0 mm 3 mps 748 mmHg 31%
    12:00 +17°C° 0 mm 4 mps 747 mmHg 29%
    13:00 +18°C° 0 mm 4 mps 746 mmHg 27%
    14:00 +19°C° 0 mm 4 mps 745 mmHg 25%
    15:00 +18°C° 0 mm 4 mps 745 mmHg 26%
    16:00 +18°C° 0 mm 3 mps 745 mmHg 28%
    17:00 +17°C° 0 mm 3 mps 744 mmHg 29%
    18:00 +14°C° 0 mm 3 mps 744 mmHg 34%
    19:00 +13°C° 0 mm 2 mps 745 mmHg 40%
    20:00 +10°C° 0 mm 2 mps 745 mmHg 45%
    21:00 +9°C° 0 mm 2 mps 745 mmHg 46%
    22:00 +9°C° 0 mm 2 mps 744 mmHg 46%
    23:00 +8°C° 0 mm 2 mps 744 mmHg 47%

    28 September, Friday

    Time Temperature Precipitation Wind Pressure Humidity
    00:00 +8°C° 0 mm 2 mps 744 mmHg 46%
    01:00 +8°C° 0 mm 2 mps 744 mmHg 44%
    02:00 +8°C° 0 mm 2 mps 743 mmHg 43%
    03:00 +8°C° 0 mm 2 mps 743 mmHg 42%
    04:00 +8°C° 0 mm 2 mps 743 mmHg 41%
    05:00 +8°C° 0 mm 2 mps 743 mmHg 40%
    06:00 +9°C° 0 mm 2 mps 743 mmHg 38%
    07:00 +12°C° 0 mm 2 mps 743 mmHg 36%
    08:00 +13°C° 0 mm 2 mps 743 mmHg 34%
    09:00 +15°C° 0 mm 2 mps 743 mmHg 32%
    10:00 +18°C° 0 mm 2 mps 742 mmHg 30%
    11:00 +20°C° 0 mm 2 mps 742 mmHg 28%
    12:00 +20°C° 0 mm 2 mps 741 mmHg 28%
    13:00 +21°C° 0 mm 2 mps 741 mmHg 27%
    14:00 +22°C° 0 mm 3 mps 740 mmHg 27%
    15:00 +21°C° 0 mm 2 mps 740 mmHg 29%
    16:00 +21°C° 0 mm 2 mps 740 mmHg 31%
    17:00 +20°C° 0 mm 2 mps 739 mmHg 33%
    18:00 +18°C° 0 mm 2 mps 739 mmHg 38%
    19:00 +16°C° 0 mm 2 mps 740 mmHg 42%
    20:00 +15°C° 0 mm 1 mps 740 mmHg 46%
    21:00 +14°C° 0 mm 1 mps 740 mmHg 49%
    22:00 +14°C° 0 mm 1 mps 740 mmHg 52%
    23:00 +14°C° 0 mm 1 mps 740 mmHg 55%

    29 September, Saturday

    Time Temperature Precipitation Wind Pressure Humidity
    00:00 +13°C° 0 mm 1 mps 739 mmHg 58%
    01:00 +13°C° 0 mm 1 mps 739 mmHg 60%
    02:00 +13°C° 0 mm 1 mps 739 mmHg 63%
    03:00 +13°C° 0 mm 1 mps 739 mmHg 64%
    04:00 +12°C° 0 mm 1 mps 739 mmHg 66%
    05:00 +12°C° 0 mm 1 mps 738 mmHg 67%
    06:00 +13°C° 0 mm 1 mps 738 mmHg 64%
    07:00 +14°C° 0 mm 1 mps 739 mmHg 61%
    08:00 +16°C° 0 mm 1 mps 739 mmHg 58%
    09:00 +19°C° 0 mm 1 mps 739 mmHg 52%
    10:00 +21°C° 0 mm 1 mps 739 mmHg 46%
    11:00 +23°C° 0 mm 1 mps 739 mmHg 40%
    12:00 +23°C° 0 mm 1 mps 738 mmHg 39%
    13:00 +24°C° 0 mm 1 mps 738 mmHg 37%
    14:00 +25°C° 0 mm 1 mps 738 mmHg 36%
    15:00 +24°C° 0 mm 1 mps 738 mmHg 38%
    16:00 +23°C° 0 mm 1 mps 738 mmHg 40%
    17:00 +23°C° 0 mm 2 mps 738 mmHg 43%
    18:00 +21°C° 0 mm 1 mps 738 mmHg 48%
    19:00 +19°C° 0 mm 1 mps 738 mmHg 54%
    20:00 +16°C° 0 mm 1 mps 739 mmHg 60%
    21:00 +16°C° 0 mm 1 mps 739 mmHg 60%
    22:00 +15°C° 0 mm 1 mps 739 mmHg 60%
    23:00 +15°C° 0 mm 1 mps 739 mmHg 61%
    Show more